Weather History for Skagway, AK

Change the Weather History Date:

Sunday, October 19, 2014

  Actual Average Record
Temperature  
Mean Temperature 48 °F -  
Max Temperature 53 °F 44 °F 55 °F (1969)
Min Temperature 43 °F 36 °F 23 °F (1990)
Degree Days  
Heating Degree Days 18    
Moisture  
Dew Point 41 °F    
Average Humidity 84    
Maximum Humidity 93    
Minimum Humidity 61    
Precipitation  
Precipitation 0.25 in - - ()
Sea Level Pressure  
Sea Level Pressure 29.19 in    
Wind  
Wind Speed 4 mph (North)    
Max Wind Speed 23 mph    
Max Gust Speed 30 mph    
Visibility 10 miles    
Events Rain    
Averages and records for this station are not official NWS values.
T = Trace of Precipitation, MM = Missing Value Source: NWS Daily Summary

Daily Weather History Graph

Daily Weather History Graph

Search for Another Location

Airport:

Trip Planner

Search our weather history database for the weather conditions in past years. The results will help you decide how hot, cold, wet, or windy it might be!

Date:

Astronomy

Oct. 19, 2014 Rise Set
Actual Time 7:49 AM AKDT 5:41 PM AKDT
Civil Twilight 7:07 AM AKDT 6:23 PM AKDT
Nautical Twilight 6:19 AM AKDT 7:11 PM AKDT
Astronomical Twilight 5:32 AM AKDT 7:58 PM AKDT
Moon 2:54 AM AKDT (10/19) 4:24 PM AKDT (10/19)
Length of Visible Light 11h 16m
Length of Day
9h 52m
Waning Crescent, 15% of the Moon is Illuminated
Oct 19
Waning Crescent
Oct 23
New
Oct 30
First Quarter
Nov 6
Full
Nov 14
Last Quarter

Hourly Weather History & Observations

Time (AKDT) Temp. Windchill Dew Point Humidity Pressure Visibility Wind Dir Wind Speed Gust Speed Precip Events Conditions
12:53 AM 44.1 °F - 42.1 °F 93% 29.35 in - Calm Calm - 0.00 in Rain Light Rain
1:53 AM 43.0 °F 41.3 °F 39.9 °F 89% 29.35 in 10.0 mi NNE 3.5 mph - 0.00 in   Overcast
2:53 AM 44.1 °F - 42.1 °F 93% 29.37 in 10.0 mi Calm Calm - 0.00 in Rain Light Rain
3:53 AM 43.0 °F - 41.0 °F 93% 29.38 in - Calm Calm - 0.02 in Rain Light Rain
4:53 AM 43.0 °F - 41.0 °F 93% 29.38 in 10.0 mi Calm Calm - 0.03 in Rain Light Rain
5:53 AM 43.0 °F - 41.0 °F 93% 29.36 in 10.0 mi Calm Calm - 0.01 in Rain Light Rain
6:53 AM 43.0 °F - 41.0 °F 93% 29.34 in 10.0 mi Calm Calm - 0.00 in   Overcast
7:53 AM 43.0 °F - 41.0 °F 93% 29.30 in 10.0 mi Calm Calm - N/A   Overcast
8:53 AM 43.0 °F - 41.0 °F 93% 29.25 in 10.0 mi Calm Calm - N/A   Overcast
9:53 AM 45.0 °F 43.5 °F 42.1 °F 90% 29.24 in 10.0 mi NNE 3.5 mph - N/A   Overcast
10:53 AM 48.0 °F - 42.1 °F 80% 29.19 in 10.0 mi Calm Calm - N/A   Overcast
11:53 AM 50.0 °F - 41.0 °F 71% 29.16 in 10.0 mi North 11.5 mph 16.1 mph N/A   Clear
12:53 PM 52.0 °F - 39.0 °F 61% 29.10 in 10.0 mi NNE 13.8 mph 28.8 mph N/A   Partly Cloudy
1:53 PM 50.0 °F - 39.9 °F 68% 29.08 in 10.0 mi NE 11.5 mph - 0.00 in Rain Light Rain
2:53 PM 48.9 °F - 39.9 °F 71% 29.04 in 9.0 mi NNE 18.4 mph 29.9 mph 0.04 in Rain Light Rain
3:53 PM 48.0 °F - 41.0 °F 77% 29.00 in 10.0 mi NNE 10.4 mph - 0.02 in Rain Light Rain
4:53 PM 48.9 °F - 39.0 °F 69% 28.99 in 10.0 mi North 8.1 mph - 0.00 in Rain Light Rain
5:53 PM 46.9 °F - 39.9 °F 77% 29.00 in 10.0 mi NW 4.6 mph - 0.01 in Rain Light Rain
6:53 PM 45.0 °F - 41.0 °F 86% 29.03 in 10.0 mi Calm Calm - 0.03 in Rain Light Rain
7:53 PM 46.0 °F - 43.0 °F 89% 29.09 in 8.0 mi Calm Calm - 0.06 in Rain Light Rain
8:32 PM 45.0 °F 42.6 °F 42.1 °F 90% 29.11 in 10.0 mi Variable 4.6 mph - 0.02 in Rain Light Rain
8:53 PM 45.0 °F 43.5 °F 42.1 °F 90% 29.13 in 10.0 mi South 3.5 mph - 0.03 in   Overcast
9:53 PM 45.0 °F 37.4 °F 39.9 °F 82% 29.15 in 10.0 mi SSW 18.4 mph 28.8 mph 0.00 in   Overcast
10:53 PM 48.0 °F - 41.0 °F 77% 29.17 in 10.0 mi SSW 23.0 mph - N/A   Scattered Clouds
11:53 PM 48.0 °F - 42.1 °F 80% 29.19 in 10.0 mi SSW 16.1 mph - 0.00 in Rain Light Rain